Weather Roundup
Issued by NWS Springfield, MO

Home | Current Version | Previous Version | Text Only | Print | Product List | Glossary On
Versions: 1 2 3 4 5 6 7 8 9 10 11 12 13 14 15 16 17 18 19 20 21 22 23 24 25 26 27 28 29 30 31 32 33 34 35 36 37 38 39 40 41 42 43 44 45 46 47 48 49 50
000
NZUS99 KSGF 171359
HRRSGF

HOURLY WEATHER
NATIONAL WEATHER SERVICE SPRINGFIELD MO
900 AM CDT THU APR 17 2014

......SGF CWA......

CITY           SKY/WX    TMP DP  RH WIND       PRES   REMARKS
SPRINGFIELD    CLOUDY    48  35  60 S6        30.21R
JOPLIN         PTSUNNY   47  38  71 N9        30.23R
WEST PLAINS    MOSUNNY   51  35  54 S5        30.25R
ROLLA          PTSUNNY   47  33  58 SW9       30.20R
OSAGE BEACH    PTSUNNY   48  30  49 SW3       30.23S
BRANSON        MOSUNNY   48  32  53 SE5       30.23R

......SURROUNDING SGF CWA......

CITY           SKY/WX    TMP DP  RH WIND       PRES   REMARKS
CHANUTE        CLOUDY    42  31  64 N13       30.26R
PARSONS        CLOUDY    44  33  65 MISG      30.26R
COFFEYVILLE    CLOUDY    44  34  67 N14       30.24R
EMPORIA        CLOUDY    37  28  70 N13       30.27R WCI  29
SILOAM SPRINGS MOSUNNY   50  34  53 CALM      30.23R
HARRISON AR    MOSUNNY   48  36  63 SE5       30.22R
NEAR YELLVILLE PTSUNNY   45  30  57 E3        30.25R

......KANSAS AND MISSOURI......

CITY           SKY/WX    TMP DP  RH WIND       PRES   REMARKS
KANSAS CTY INT CLOUDY    38  29  70 N15       30.27R WCI  29
DOWNTOWN KC    CLOUDY    40  30  67 N9        30.28R WCI  34
COLUMBIA       PTSUNNY   45  36  70 N9        30.22R
SEDALIA        CLOUDY    43  35  73 NW12      30.25R
ST JOSEPH      CLOUDY    37  28  70 N15       30.30R WCI  28
ST LOUIS       PTSUNNY   53  33  46 W7        30.22R
SPIRIT OF STL  MOSUNNY   54  33  45 SW9       30.21R
KIRKSVILLE     CLOUDY    39  32  76 NW9       30.24R WCI  33
WICHITA        CLOUDY    40  28  62 N13       30.26R WCI  32
TOPEKA         CLOUDY    39  29  67 N13       30.30R WCI  31
OLATHE         CLOUDY    38  30  73 N12       30.25R WCI  30

......TENNESSEE......

CITY           SKY/WX    TMP DP  RH WIND       PRES   REMARKS
MEMPHIS        MOSUNNY   56  39  53 S12       30.28R
NASHVILLE      MOSUNNY   55  31  39 S16G23    30.37R

......ARKANSAS.......

CITY           SKY/WX    TMP DP  RH WIND       PRES   REMARKS
FAYETTEVILLE   SUNNY     48  38  68 CALM      30.22R
FT SMITH       SUNNY     51  40  65 NE7       30.23R
LITTLE ROCK    MOSUNNY   53  42  66 CALM      30.26R

......OKLAHOMA.......

CITY           SKY/WX    TMP DP  RH WIND       PRES   REMARKS
TULSA          CLOUDY    52  37  56 CALM      30.21R
PONCA CITY     CLOUDY    45  32  60 NE17      30.23R
MCALESTER      MOSUNNY   54  38  54 SE6       30.19R
OKLAHOMA CITY  CLOUDY    53  37  54 E8        30.18R

......IOWA............

CITY           SKY/WX    TMP DP  RH WIND       PRES   REMARKS
DES MOINES     CLOUDY    36  27  69 N16       30.25R WCI  26
QUAD CITIES    CLOUDY    41  33  73 W13       30.17R

......ILLINOIS........

CITY           SKY/WX    TMP DP  RH WIND       PRES   REMARKS
QUINCY         PTSUNNY   45  36  70 NW14      30.20R
CHICAGO        MOSUNNY   49  29  46 SW18      30.14S




USA.gov is the U.S. government's official web portal to all federal, state and local government web resources and services.